Home   Weather   Sarh   Past weeks

Flag for Chad Past Weather in Sarh, Chad — Yesterday and Last 2 Weeks

Now
73 °F

Sunny.


Feels Like: 70 °F
Forecast: 77 / 91 °F
Wind: No wind

Location: Sarh Airport

Current Time: Sep 28, 2016 at 8:04:42 AM

Latest Report: Sep 28, 2016 at 6:00 AM


Visibility: 10 mi

Pressure: 29.95 "Hg

Humidity: 94%

Dew Point: 72 °F

Location of SarhLocation

Past Weather in Sarh — Graph

°F

Sarh Temperature Yesterday

Maximum temperature yesterday: 95 °F (at 3:00 PM)
Minimum temperature yesterday: 77 °F (at 12:00 AM)
Average temperature yesterday: 85 °F

High & Low Weather Summary for the Past Weeks

 TemperatureHumidityPressure
High95 °F (Sep 19, 1:00 PM)100% (Sep 14, 12:00 PM)30.04 "Hg (Sep 14, 12:00 PM)
Low70 °F (Sep 15, 4:00 PM)46% (Sep 21, 3:00 PM)29.83 "Hg (Sep 19, 2:00 PM)
Average80 °F78%29.93 "Hg
* Reported Sep 13 6:00 AM — Sep 28 6:00 AM, Sarh, Weather by CustomWeather, © 2016

Note: Actual official high and low records may vary slightly from our data, if they occured in-between our weather recording intervals... More about our weather records

Advertising

Sarh Weather History for the Previous 24 Hours

Scroll right to see more
 ConditionsComfort  
Time TempWeatherWind HumidityBarometerVisibility
6:00 AM
Wed, Sep 28
73 °FSunny.No wind94%29.95 "Hg10 mi
5:00 AM73 °FClear.No wind94%29.95 "Hg10 mi
4:00 AM73 °FClear.No wind94%29.92 "Hg10 mi
2:00 AM75 °FClear.No wind94%29.92 "Hg10 mi
1:00 AM75 °FClear.No wind94%29.92 "Hg10 mi
12:00 AM77 °FClear.No wind89%29.95 "Hg10 mi
11:00 PM
Tue, Sep 27
77 °FPassing clouds.9 mph89%29.95 "HgN/A
10:00 PM77 °FPassing clouds.7 mph89%29.95 "HgN/A
9:00 PM77 °FThunderstorms. Passing clouds.No wind89%29.95 "HgN/A
8:00 PM79 °FThunderstorms. Passing clouds.5 mph84%29.92 "HgN/A
7:00 PM81 °FThunderstorms. Passing clouds.No wind74%29.89 "HgN/A
6:00 PM84 °FPassing clouds.No wind66%29.86 "HgN/A
5:00 PM90 °FPassing clouds.5 mph63%29.86 "HgN/A
4:00 PM93 °FPassing clouds.12 mph49%29.86 "HgN/A
3:00 PM95 °FScattered clouds.12 mph47%29.86 "HgN/A
1:00 PM93 °FScattered clouds.7 mph49%29.89 "HgN/A
12:00 PM93 °FScattered clouds.No wind49%29.92 "HgN/A
11:00 AM91 °FPassing clouds.5 mph56%29.98 "HgN/A
10:00 AM88 °FPassing clouds.2 mph62%29.98 "HgN/A
9:00 AM86 °FSunny.No wind66%29.98 "Hg10 mi
8:00 AM81 °FSunny.No wind84%29.95 "Hg10 mi
Weather by CustomWeather, © 2016

See weather overviewHow to use our weather pages